Погода в Нурмолицах

Россия / Республика Карелия     61°04′25″N   32°55′37″E
темп.,
°C
ветер,
м/с
пор.,
м/с
влажн.,
%
обл.,
%
осадки,
мм/ч
давл.,
гПа
погр.,
м
21 апреля, ср
ср2100:00+4вюв387093 0.0 1018176
03:00+3в2674100 0.0 1016137
06:00+2в3677100 0.0 1013137
09:00+2всв3894100 1.1 1011421
12:00+3св51092100 1.6 1006701
15:00+2всв3897100 4.7 1004485
18:00+2в2499100 0.8 1002274
21:00+2ю01100100 1.0 1001215
22 апреля, чт
чт2200:00+1юз2499100 0.3 1001186
03:00+1юз2599100 0.5 1002185
06:00+1ююз2599100 0.4 1003206
09:00+2ююз2699100 1.1 1004239
12:00+4ююз369096 0.3 1005451
15:00+9юз377514 0.4 1006806
18:00+10юз136951 0.1 1006267
21:00+6вюв33835 0.1 100738
23 апреля, пт
пт2300:00+5вюв3109099 0.0 1005181
03:00+6ююв3990100 0.3 1005323
06:00+6ююв3996100 0.6 1005396
09:00+7ююз3585100 0.6 1006634
12:00+8ю3566100 0.1 10071078
15:00+7ю4682100 1.4 1007920
18:00+7юв467999 1.3 1008646
21:00+4юв2488100 2.2 100879
24 апреля, сб
сб2400:00+3юв3692100 0.1 1009135
03:00+2юв2590100 0.1 1008114
06:00+2юв2488100 0.0 100896
09:00+5юв1177100 0.0 1007325
12:00+6сз1173100 0.1 1007736
15:00+6ссз2277100 0.5 1006763
18:00+5з2384100 0.3 1005540
21:00+3з2293100 0.4 100545
25 апреля, вс
вс2500:00+1зюз229423 0.0 100446
03:000юз119278 0.0 100410
06:000вюв1188100 0.0 100419
09:00+4зюз1170100 0.0 1004449
12:00+5з2263100 0.0 1004823
15:00+6з3367100 0.0 1005778
18:00+4зсз3573100 0.0 1005372
21:00+3зсз3882100 0.1 1005476